FENGYUN 1C DEB

Satellite information

Favourite Embed

Satellite Type and Status

DEBRISIN ORBIT

Key statistics

Satellite FENGYUN 1C DEB at a glance.

Uptime

9618

Days in orbit

Revolutions

≈ 14.5

Per day

Orbit

SSO

Sun Synchronous Orbit

Inclination

99.0

Latest

Satellite identification and parameters

Extended collection of information and parameters for FENGYUN 1C DEB.

Object identification

Identified? True

Debris? True

Object name: FENGYUN 1C DEB

International designator: 1999-025BTX

Object number (NORAD): 31435

Object ID (CCSDS): 31435

Country: PEOPLES REPUBLIC OF CHINA (PRC)

Current information (Y/N): Y

RCS size: SMALL

Orbital parameters

Period: 99.095 minutes

Inclination: 99.0331 deg

SMA: 7093.526 km

Apoapsis: 822.236 km

Periapsis: 608.545 km

RAAN: 55.048 deg

Eccentricy: 0.01506242

Argument of periapsis: 109.5295 deg

Mean anomaly: 252.2236 deg

Mean motion: 14.53147 rev/day

Mean motion (dot): 0.00001446 rev/day2

B* drag term: 0.0003130295 1/REarth

Two-line elements (TLE)

Creation date: Sept. 8, 2025, 3:16 a.m.

Reference frame: TEME

Reference center: EARTH

Epoch: Sept. 7, 2025, 5:16 p.m. UTC

TLE line 0: 0 FENGYUN 1C DEB

TLE line 1: 1 31435U 99025BTX 25250.71965564 .00001446 00000-0 31303-3 0 9996

TLE line 2: 2 31435 99.0331 55.0480 0150624 109.5295 252.2236 14.53147000969780

Live tracking on map

Real-time ground track for satellite FENGYUN 1C DEB.

In-orbit conjunctions

A list of the most updated potential collisions computed for object FENGYUN 1C DEB.

Target Orbit TCA Probability of collision Miss distance Type
PSLV R/B SSO 2025-07-21 16:48:59 0.02832847 16.0 (m) ROCKET BODY
NOAA 16 DEB SSO 2024-11-14 07:49:10 0.0001078565 153.0 (m) DEBRIS

Associated space launch

Chinese polar orbiting meteorological satellite

FENGYUN 1C DEB was lifted into orbit during the mission ‘Long March 4B | Feng Yun 1C’, on board a Long March 4B space rocket.

The launch took place on May 10, 1999, 1:33 a.m. from Launch Complex 7.

For more information about the launch, click the button.

Launch to space Long March 4B | Feng Yun 1C
Long March 4B | Feng Yun 1C

Agency: N/A

Status: Launch Successful

Launch date: May 10, 1999, 1:33 a.m. UTC

Rocket: Long March 4B

Launch pad: Launch Complex 7

Location: Taiyuan Satellite Launch Center, People's Republic of China

...

Latest news about this satellite

There are no fresh news available about this satellite. Check back as we update our databases every day.


Newsletter sign-up

Weekly statistics, charts and insights to help you stay on top of the space industry.